[[{"header":{"parameterUnit":"m.s-1","parameterCategory":1,"la1":30.2991,"la2":30.254,"lo1":-89.0895,"lo2":-89.0444,"dy":0.0017,"dx":0.0017,"nx":28,"ny":28,"refTime":"2025-08-28T09:00:00:Z","depth":0,"parameterNumber":2,"parameterNumberName":"U-component_of_WINDS"},"data":[0,0,0,0,0,0,0,0,0,0,0,0,0,0,0,0,0,0,0,0,0,0,0,0,0,0,0,0,0,0,0,0,0,0,0,0,0,0,0,0,0,0,0,0,0,0,0,0,0,0,0,0,0,0,0,0,0,0,-2.2746,-2.2745,0,-2.2699,-2.2699,-2.2698,-2.2569,-2.2567,-2.2564,-2.2561,-2.2516,-2.2517,-2.2519,0,0,0,0,0,0,0,0,0,0,0,0,0,-2.2728,-2.2729,-2.2746,-2.2745,-2.2745,-2.2699,-2.2699,-2.2698,-2.257,-2.2567,-2.2563,-2.256,-2.2515,-2.2517,-2.2519,0,0,0,0,0,0,0,0,0,0,0,0,0,-2.2714,-2.2729,-2.2746,-2.2675,-2.2668,-2.27,-2.2699,-2.2698,-2.2571,-2.2566,-2.2562,-2.2558,-2.2515,-2.2517,-2.2519,-2.2616,0,0,-2.2525,-2.2526,0,0,0,0,0,0,0,0,-2.2715,-2.2715,-2.2686,-2.268,-2.2673,-2.2636,-2.2676,-2.267,-2.2572,-2.2608,-2.2561,-2.2556,-2.2559,-2.2558,-2.2558,-2.2613,-2.2611,-2.2526,-2.2527,-2.2528,-2.2528,0,0,0,0,0,0,0,-2.2716,-2.2716,-2.2727,-2.2686,-2.2678,-2.2647,-2.2641,-2.2674,-2.2608,-2.2604,-2.2595,-2.2591,-2.2555,-2.2556,-2.2556,-2.2611,-2.2526,-2.2527,-2.2529,-2.2529,-2.2745,-2.2749,0,0,0,0,0,0,-2.2727,-2.2718,-2.2729,-2.2726,-2.2684,-2.2651,-2.2643,-2.2652,-2.2607,-2.2596,-2.2595,-2.2585,-2.2555,-2.2554,-2.2554,-2.2664,-2.2528,-2.253,-2.2531,-2.274,-2.2746,-2.275,0,0,0,0,0,0,-2.2727,-2.2729,-2.2731,-2.2719,-2.2717,-2.2656,-2.2666,-2.2653,-2.2654,-2.26,-2.2587,-2.2608,-2.2552,-2.2551,-2.2601,-2.266,-2.2531,-2.2533,-2.2735,-2.2742,-2.2748,-2.2885,0,0,0,0,0,0,-2.2727,-2.273,-2.2764,-2.2721,-2.2718,-2.2778,-2.267,-2.2655,-2.2658,-2.2645,-2.2609,-2.2599,-2.2548,-2.2599,-2.2603,-2.2661,-2.2534,-2.2729,-2.2738,-2.2746,-2.2874,-2.2895,-2.2913,0,0,0,0,0,-2.2727,-2.2805,-2.2767,-2.2769,-2.276,-2.2782,-2.278,-2.2719,-2.2663,-2.2698,-2.2664,-2.26,-2.2654,-2.2605,-2.2609,-2.2668,-2.2725,-2.2735,-2.2745,-2.2866,-2.2891,-2.2912,0,0,0,0,0,0,-2.2857,-2.2798,-2.2755,-2.2821,-2.2808,-2.276,-2.2801,-2.2748,-2.275,-2.2738,-2.2664,-2.2657,-2.2718,-2.2698,-2.2645,-2.276,-2.2679,-2.2691,-2.277,-2.2793,-2.2812,-2.2814,-2.2536,0,0,0,0,0,-2.2893,-2.2914,-2.2862,-2.2926,-2.2921,-2.2864,-2.287,-2.2825,-2.2808,-2.2802,-2.277,-2.2757,-2.2771,-2.2781,-2.2791,-2.2872,-2.2863,-2.2915,-2.2935,-2.2951,-2.296,-2.3002,-2.3025,-2.2783,-2.2783,-2.2783,0,0,-2.2968,-2.2939,-2.2957,-2.2952,-2.2935,-2.296,-2.2859,-2.2889,-2.2907,-2.2806,-2.2851,-2.2829,-2.2809,-2.2876,-2.2903,-2.2861,-2.3026,-2.2963,-2.2977,-2.2977,-2.3015,-2.3038,-2.3059,-2.279,-2.2789,-2.2788,0,0,-2.3117,-2.3098,-2.3148,-2.3135,-2.3112,-2.3074,-2.3087,-2.3048,-2.3029,-2.3073,-2.2999,-2.302,-2.3045,-2.3034,-2.3032,-2.3182,-2.3124,-2.3188,-2.3287,-2.3329,-2.3348,-2.3364,-2.3417,-2.3437,-2.3199,-2.3199,-2.3199,0,-2.3213,-2.3246,-2.3182,-2.3217,-2.3217,-2.3129,-2.318,-2.3171,-2.3153,-2.3156,-2.311,-2.3141,-2.3121,-2.3184,-2.3221,-2.3223,-2.3235,-2.319,-2.335,-2.3366,-2.3381,-2.343,-2.345,-2.3207,-2.3206,-2.3205,-2.3204,0,-2.3366,-2.339,-2.3434,-2.3419,-2.3425,-2.3469,-2.3412,-2.3426,-2.3382,-2.335,-2.3397,-2.3372,-2.3375,-2.3387,-2.3344,-2.3445,-2.3419,-2.3364,-2.328,-2.3413,-2.3458,-2.3476,-2.3218,-2.3215,-2.3213,-2.3211,0,0,-2.359,-2.3542,-2.3559,-2.3551,-2.3522,-2.354,-2.3581,-2.3584,-2.3598,-2.3591,-2.3623,-2.3648,-2.3597,-2.3595,-2.3551,-2.3588,-2.3708,-2.3527,-2.3525,-2.356,-2.3817,-2.3858,-2.3881,-2.3671,-2.3674,-2.3677,-2.3818,0,-2.3729,-2.3794,-2.374,-2.3816,-2.3838,-2.3757,-2.3793,-2.378,-2.3751,-2.3767,-2.3737,-2.3755,-2.3686,-2.3684,-2.3718,-2.3686,-2.3758,-2.3676,-2.37,-2.3702,-2.3705,-2.3904,-2.3947,-2.4081,-2.3836,-2.3839,-2.3841,0,-2.3899,-2.3899,-2.3978,-2.3945,-2.3952,-2.3985,-2.3985,-2.4001,-2.3986,-2.3963,-2.3963,-2.391,-2.3949,-2.3871,-2.3924,-2.3869,-2.3877,-2.3864,-2.3867,-2.3865,-2.3777,-2.3906,-2.4123,-2.4142,-2.3868,-2.3866,-2.3864,0,-2.4053,-2.4074,-2.4123,-2.412,-2.4083,-2.4109,-2.4095,-2.4075,-2.4082,-2.4083,-2.4086,-2.4092,-2.4095,-2.4102,-2.4052,-2.4,-2.4112,-2.4029,-2.4094,-2.4096,-2.4118,-2.4117,-2.4338,-2.4128,-2.4128,-2.4128,-2.4127,0,-2.4212,-2.4263,-2.4192,-2.4222,-2.4278,-2.4216,-2.4273,-2.4251,-2.4235,-2.4261,-2.4193,-2.4218,-2.4152,-2.4172,-2.4134,-2.4184,-2.4187,-2.4169,-2.4158,-2.4174,-2.4176,-2.4175,-2.4164,-2.4133,-2.4132,-2.4131,-2.413,0,-2.4392,-2.4346,-2.4395,-2.4358,-2.435,-2.4393,-2.4361,-2.4388,-2.4358,-2.4391,-2.4395,-2.4347,-2.4367,-2.4319,-2.4332,-2.4306,-2.4378,-2.4353,-2.4383,-2.4374,-2.4441,-2.4435,-2.4667,-2.4694,-2.447,-2.4472,-2.4474,0,-2.4495,-2.4532,-2.45,-2.4512,-2.4502,-2.4523,-2.4529,-2.4472,-2.4482,-2.4469,-2.4499,-2.4513,-2.452,-2.4556,-2.4523,-2.4533,-2.4506,-2.4587,-2.4507,-2.4522,-2.4505,-2.4503,-2.4506,-2.4603,-2.4605,-2.4608,-2.461,0,-2.4682,-2.4658,-2.467,-2.4675,-2.4685,-2.4687,-2.4683,-2.4698,-2.4637,-2.4652,-2.4671,-2.4678,-2.4692,-2.4707,-2.471,-2.4697,-2.4644,-2.4636,-2.4651,-2.4666,-2.4681,-2.4672,-2.4425,-2.463,-2.4628,-2.4626,-2.4625,-2.4624,-2.4824,-2.4854,-2.4837,-2.4853,-2.4845,-2.4844,-2.4868,-2.4842,-2.4857,-2.4863,-2.483,-2.4857,-2.4843,-2.4842,-2.4835,-2.4856,-2.4819,-2.4842,-2.4847,-2.4853,-2.4863,-2.4681,-2.4857,-2.4856,-2.4856,-2.4855,-2.4855,0,-2.5006,-2.4992,-2.5008,-2.5006,-2.5019,-2.497,-2.4965,-2.4979,-2.5004,-2.4996,-2.5006,-2.503,-2.5045,-2.5015,-2.5025,-2.5049,-2.5025,-2.5053,-2.5049,-2.5047,-2.4896,-2.4881,-2.5072,-2.5072,-2.5072,-2.5072,-2.5072,-2.5072,-2.5102,-2.515,-2.5126,-2.517,-2.5156,-2.5181,-2.5183,-2.5183,-2.5176,-2.5205,-2.5218,-2.5198,-2.5182,-2.5192,-2.5204,-2.5195,-2.5201,-2.5238,-2.5221,-2.5079,-2.5058,-2.5037,-2.5023,-2.5241,-2.5241,-2.5369,-2.5371,-2.5372]},{"header":{"parameterUnit":"m.s-1","parameterCategory":1,"la1":30.2991,"la2":30.254,"lo1":-89.0895,"lo2":-89.0444,"dy":0.0017,"dx":0.0017,"nx":28,"ny":28,"refTime":"2025-08-28T09:00:00:Z","depth":0,"parameterNumber":3,"parameterNumberName":"V-component_of_WINDS"},"data":[0,0,0,0,0,0,0,0,0,0,0,0,0,0,0,0,0,0,0,0,0,0,0,0,0,0,0,0,0,0,0,0,0,0,0,0,0,0,0,0,0,0,0,0,0,0,0,0,0,0,0,0,0,0,0,0,0,0,2.1216,2.1215,0,2.1193,2.1193,2.1193,2.1207,2.1207,2.1208,2.1209,2.1179,2.1178,2.1177,0,0,0,0,0,0,0,0,0,0,0,0,0,2.1266,2.1265,2.1216,2.1215,2.1215,2.1193,2.1193,2.1193,2.1207,2.1207,2.1208,2.1209,2.118,2.1178,2.1176,0,0,0,0,0,0,0,0,0,0,0,0,0,2.1244,2.1265,2.1216,2.122,2.122,2.1193,2.1193,2.1193,2.1206,2.1207,2.1208,2.1209,2.118,2.1178,2.1176,2.1143,0,0,2.117,2.1169,0,0,0,0,0,0,0,0,2.1245,2.1242,2.1219,2.1219,2.1219,2.1204,2.12,2.1176,2.1206,2.1211,2.1209,2.121,2.1186,2.1184,2.1177,2.1142,2.114,2.117,2.1168,2.1167,2.1167,0,0,0,0,0,0,0,2.1246,2.1243,2.1207,2.1219,2.1219,2.1221,2.1219,2.1195,2.1193,2.1211,2.1212,2.1209,2.1186,2.1179,2.1177,2.114,2.117,2.1168,2.1166,2.1166,2.1077,2.1076,0,0,0,0,0,0,2.1248,2.1244,2.1207,2.1206,2.1235,2.1219,2.1217,2.1208,2.1193,2.1192,2.1209,2.121,2.1182,2.1179,2.1176,2.1136,2.1167,2.1165,2.1164,2.1078,2.1077,2.1076,0,0,0,0,0,0,2.1249,2.1245,2.1208,2.1225,2.1221,2.1217,2.1207,2.1207,2.12,2.1192,2.1191,2.1202,2.1183,2.1179,2.1152,2.1135,2.1164,2.1163,2.1079,2.1078,2.1076,2.1056,0,0,0,0,0,0,2.1251,2.1245,2.1233,2.1225,2.122,2.1186,2.1206,2.1206,2.1197,2.1198,2.1185,2.1184,2.1183,2.1155,2.115,2.1133,2.1161,2.1081,2.1079,2.1077,2.1058,2.1054,2.1051,0,0,0,0,0,2.1253,2.1227,2.1233,2.1228,2.1205,2.1185,2.1182,2.1183,2.1195,2.1183,2.1178,2.1184,2.1138,2.1152,2.1146,2.1128,2.1082,2.1079,2.1077,2.106,2.1055,2.1051,0,0,0,0,0,0,2.1231,2.1226,2.1232,2.1204,2.1195,2.1187,2.1171,2.1178,2.1164,2.1166,2.1167,2.1164,2.1136,2.113,2.1145,2.1096,2.1112,2.1108,2.1101,2.1096,2.1092,2.1093,2.1159,0,0,0,0,0,2.1223,2.1209,2.1205,2.118,2.1175,2.1174,2.1165,2.1168,2.1158,2.1154,2.1147,2.1136,2.1119,2.1107,2.1091,2.1059,2.1055,2.1044,2.104,2.1037,2.1033,2.1015,2.101,2.1068,2.1068,2.1068,0,0,2.1206,2.1202,2.1192,2.1175,2.1169,2.1153,2.1171,2.1152,2.114,2.115,2.1125,2.112,2.1107,2.1078,2.1064,2.1072,2.1017,2.1034,2.1031,2.1029,2.1012,2.1007,2.1002,2.1066,2.1066,2.1066,0,0,2.1166,2.1162,2.1141,2.1136,2.1127,2.1127,2.1122,2.1114,2.1112,2.1087,2.1095,2.108,2.1051,2.1042,2.1033,2.0994,2.0999,2.0989,2.0967,2.095,2.0946,2.0942,2.0927,2.0922,2.0985,2.0985,2.0985,0,2.1145,2.1123,2.1129,2.1111,2.1103,2.1115,2.1094,2.1087,2.1072,2.1066,2.1076,2.1041,2.1033,2.1002,2.0993,2.0986,2.0979,2.0989,2.0947,2.0942,2.0939,2.0925,2.0919,2.0984,2.0984,2.0984,2.0984,0,2.1098,2.1082,2.1066,2.1055,2.1046,2.1025,2.1028,2.1017,2.1022,2.102,2.0995,2.0987,2.097,2.0964,2.0966,2.0933,2.0938,2.0947,2.0962,2.0932,2.0919,2.0913,2.0982,2.0982,2.0983,2.0983,0,0,2.1041,2.1036,2.103,2.1025,2.1018,2.1005,2.0986,2.0972,2.0963,2.0953,2.0936,2.0913,2.0922,2.0913,2.0915,2.09,2.087,2.0911,2.0911,2.0903,2.0832,2.0824,2.0818,2.0874,2.0873,2.0872,2.0833,0,2.1,2.0969,2.0975,2.0943,2.0929,2.0942,2.0925,2.0918,2.0917,2.0904,2.0902,2.0885,2.0899,2.0893,2.088,2.0876,2.0855,2.0879,2.0857,2.0856,2.0858,2.0811,2.0802,2.0765,2.0828,2.0827,2.0826,0,2.0948,2.0939,2.0907,2.0904,2.0898,2.0883,2.0871,2.0859,2.0852,2.0852,2.0843,2.0849,2.0829,2.0847,2.0819,2.0835,2.0827,2.0824,2.0822,2.0819,2.0838,2.0805,2.0754,2.0748,2.0818,2.0819,2.082,0,2.0909,2.0889,2.0868,2.0863,2.0859,2.0848,2.0846,2.084,2.0831,2.0821,2.0816,2.0802,2.0794,2.0784,2.0785,2.0798,2.0757,2.0775,2.0755,2.0755,2.0744,2.0744,2.0689,2.0741,2.0741,2.0741,2.0741,0,2.0862,2.0841,2.085,2.0837,2.0814,2.0822,2.0799,2.0798,2.0793,2.0778,2.0788,2.0774,2.0778,2.0764,2.0766,2.0742,2.0739,2.0737,2.0738,2.0736,2.0736,2.0728,2.073,2.074,2.074,2.074,2.0741,0,2.0813,2.0818,2.0796,2.0795,2.0794,2.0778,2.0776,2.0763,2.0764,2.0746,2.0742,2.0743,2.0728,2.0729,2.0711,2.0712,2.0683,2.0687,2.0686,2.0686,2.0666,2.0668,2.0603,2.0595,2.0654,2.0653,2.0653,0,2.0782,2.0767,2.0765,2.0758,2.0755,2.0742,2.0735,2.0743,2.0734,2.0726,2.0714,2.07,2.0689,2.0663,2.0661,2.0648,2.065,2.0629,2.0648,2.0647,2.0649,2.0649,2.0648,2.0624,2.0624,2.0623,2.0623,0,2.0726,2.073,2.072,2.0711,2.0703,2.0696,2.069,2.0682,2.0689,2.0679,2.0665,2.0657,2.064,2.0625,2.0613,2.0609,2.0616,2.0617,2.0612,2.0609,2.0608,2.0608,2.0674,2.0618,2.0618,2.0619,2.0619,2.0619,2.0684,2.0672,2.067,2.0658,2.0655,2.065,2.0638,2.0639,2.0628,2.0616,2.0622,2.0605,2.0599,2.0584,2.0579,2.0565,2.0573,2.0565,2.0563,2.0561,2.0558,2.0613,2.0563,2.0563,2.0564,2.0564,2.0564,0,2.0628,2.0628,2.0618,2.061,2.0601,2.0613,2.0607,2.0599,2.0585,2.058,2.057,2.0554,2.0541,2.0539,2.0527,2.0516,2.0519,2.0512,2.0512,2.0511,2.0552,2.0558,2.051,2.051,2.051,2.051,2.051,2.051,2.0597,2.0577,2.0582,2.056,2.056,2.0546,2.0541,2.0536,2.0533,2.0515,2.0505,2.0506,2.0502,2.049,2.0478,2.0478,2.0472,2.0464,2.0465,2.0503,2.0508,2.0513,2.0518,2.0463,2.0463,2.0425,2.0424,2.0424]}]]